CW3786 Weather Reports


Display with metric or nautical units.
time (UTC)temp
F
wind
direction
speed
MPH
gust
MPH
rain 1hr
in
rain 24hr
in
rain mn
in
humidity
%
barometer
mb
20260902070034 60 355 0.0 0.0 0.00 0.00 0.00 88 1007.6
20260902064529 60 355 0.0 0.0 0.00 0.00 0.00 88 1007.6
20260902063019 60 355 0.0 0.0 0.00 0.00 0.00 87 1007.6
20260902061557 60 355 0.0 0.0 0.00 0.00 0.00 87 1007.6
20260902060039 60 355 0.0 0.0 0.00 0.00 0.00 86 1007.6
20260902054510 61 355 0.0 0.0 0.00 0.00 0.00 85 1007.3
20260902053045 61 355 0.0 0.0 0.00 0.00 0.00 84 1007.3
20260902051545 61 355 0.0 0.0 0.00 0.00 0.00 84 1007.5
20260902050022 61 355 0.0 0.0 0.00 0.00 0.00 83 1007.3
20260902044545 62 355 0.0 0.0 0.00 0.00 0.00 83 1007.3
20260902043023 62 355 0.0 0.0 0.00 0.00 0.00 83 1007.0
20260902041520 62 355 0.0 0.0 0.00 0.00 0.00 82 1006.6
20260902040019 63 355 0.0 0.0 0.00 0.00 0.00 82 1006.5
20260902034520 63 355 0.0 0.0 0.00 0.00 0.00 80 1006.2
20260902033109 64 355 0.0 0.0 0.00 0.00 0.00 79 1006.2
20260902033001 64 355 0.0 0.0 0.00 0.00 0.00 80 1006.0
20260902031537 64 263 0.0 0.0 0.00 0.00 0.00 79 1006.0
20260902030021 64 272 0.0 0.0 0.00 0.00 0.00 78 1005.9
20260902024510 65 272 0.0 0.0 0.00 0.00 0.00 75 1005.9
20260902023048 65 272 0.0 0.0 0.00 0.00 0.00 74 1005.9
20260902021540 66 272 0.0 0.0 0.00 0.00 0.00 73 1005.8
20260902020003 67 271 0.0 0.0 0.00 0.00 0.00 72 1005.9
20260902014551 68 271 0.0 0.0 0.00 0.00 0.00 71 1005.9
20260902013027 69 250 0.0 0.0 0.00 0.00 0.00 70 1005.9
20260902011524 70 284 0.0 0.0 0.00 0.00 0.00 68 1006.0
20260902010023 71 286 0.0 0.0 0.00 0.00 0.00 67 1006.1
20260902004523 71 297 2.0 0.0 0.00 0.00 0.00 67 1006.1
20260902003051 71 265 1.0 0.0 0.00 0.00 0.00 64 1006.1
20260902001553 71 290 2.0 0.0 0.00 0.00 0.00 63 1006.1
20260902000015 72 190 1.0 0.0 0.00 0.00 0.00 63 1006.3
20260901234602 72 272 2.0 0.0 0.00 0.00 0.00 62 1006.3
20260901233024 72 244 2.0 0.0 0.00 0.00 0.00 62 1006.3
20260901231513 73 238 2.0 0.0 0.00 0.00 0.00 62 1006.4
20260901230057 73 234 2.0 0.0 0.00 0.00 0.00 59 1006.4
20260901224552 75 259 1.0 0.0 0.00 0.00 0.00 59 1006.4
20260901223041 75 255 1.0 0.0 0.00 0.00 0.00 55 1006.5
20260901221600 75 265 1.0 0.0 0.00 0.00 0.00 58 1006.5
20260901220034 76 274 1.0 0.0 0.00 0.00 0.00 55 1006.8
20260901214530 76 227 1.0 0.0 0.00 0.00 0.00 57 1006.9
20260901213012 75 232 1.0 0.0 0.00 0.00 0.00 58 1007.0
20260901211510 75 279 3.0 0.0 0.00 0.00 0.00 57 1007.0
20260901210048 76 280 1.0 0.0 0.00 0.00 0.00 55 1007.0
20260901204547 76 273 1.0 0.0 0.00 0.00 0.00 52 1007.1
20260901203058 77 248 1.0 0.0 0.00 0.00 0.00 55 1007.1
20260901201548 79 231 0.0 0.0 0.00 0.00 0.00 53 1007.5
20260901200040 79 193 0.0 0.0 0.00 0.00 0.00 52 1007.5
20260901194536 79 202 0.0 0.0 0.00 0.00 0.00 52 1007.6
20260901193107 80 223 0.0 0.0 0.00 0.00 0.00 50 1007.7
20260901191603 81 307 0.0 0.0 0.00 0.00 0.00 50 1007.9
20260901191505 81 76 0.0 0.0 0.00 0.00 0.00 51 1008.0
20260901190046 80 42 0.0 0.0 0.00 0.00 0.00 52 1008.0
20260901184539 78 15 0.0 0.0 0.00 0.00 0.00 55 1008.0
20260901183014 77 62 1.0 0.0 0.00 0.00 0.00 57 1008.0
20260901181521 77 71 2.0 0.0 0.00 0.00 0.00 58 1008.0
20260901180015 76 89 1.0 0.0 0.00 0.00 0.00 58 1008.0
20260901174540 75 63 0.0 0.0 0.00 0.00 0.00 61 1008.0
20260901173022 75 67 0.0 0.0 0.00 0.00 0.00 62 1008.0
20260901171516 74 77 0.0 0.0 0.00 0.00 0.00 65 1008.0
20260901170100 72 77 0.0 0.0 0.00 0.00 0.00 70 1008.0
20260901164546 69 226 0.0 0.0 0.00 0.00 0.00 76 1008.0
20260901163038 67 227 0.0 0.0 0.00 0.00 0.00 79 1007.8
20260901161538 65 227 0.0 0.0 0.00 0.00 0.00 83 1008.0
20260901160041 65 227 0.0 0.0 0.00 0.00 0.00 85 1008.0
20260901154525 64 226 0.0 0.0 0.00 0.00 0.00 88 1007.9
20260901153015 63 226 0.0 0.0 0.00 0.00 0.00 90 1007.6
20260901151552 63 226 0.0 0.0 0.00 0.00 0.00 92 1007.6
20260901150032 62 226 0.0 0.0 0.00 0.00 0.00 93 1007.5
20260901144510 62 261 0.0 0.0 0.00 0.00 0.00 94 1007.1
20260901143005 60 261 0.0 0.0 0.00 0.00 0.00 94 1007.0
20260901141541 59 261 0.0 0.0 0.00 0.00 0.00 94 1007.0
20260901140038 59 261 0.0 0.0 0.00 0.00 0.00 94 1006.9
20260901134551 59 261 0.0 0.0 0.00 0.00 0.00 94 1006.9
20260901133009 59 261 0.0 0.0 0.00 0.00 0.00 93 1006.6
20260901131508 60 261 0.0 0.0 0.00 0.00 0.00 93 1006.4
20260901130006 60 261 0.0 0.0 0.00 0.00 0.00 93 1006.4
20260901124558 60 261 0.0 0.0 0.00 0.00 0.00 94 1006.4
20260901123047 60 261 0.0 0.0 0.00 0.00 0.00 93 1006.5
20260901121541 60 261 0.0 0.0 0.00 0.00 0.00 93 1006.4
20260901120044 60 261 0.0 0.0 0.00 0.00 0.00 93 1006.3
20260901114516 60 261 0.0 0.0 0.00 0.00 0.00 93 1006.1
20260901113111 60 261 0.0 0.0 0.00 0.00 0.00 93 1006.1
20260901111531 60 261 0.0 0.0 0.00 0.00 0.00 93 1006.3
20260901110027 60 261 0.0 0.0 0.00 0.00 0.00 92 1006.3
20260901104511 61 261 0.0 0.0 0.00 0.00 0.00 92 1006.4
20260901103051 61 261 0.0 0.0 0.00 0.00 0.00 92 1006.4
20260901101544 61 261 0.0 0.0 0.00 0.00 0.00 92 1006.4
20260901100012 61 261 0.0 0.0 0.00 0.00 0.00 92 1006.4
20260901094510 61 261 0.0 0.0 0.00 0.00 0.00 92 1006.4
20260901093058 61 261 0.0 0.0 0.00 0.00 0.00 92 1006.4
20260901091539 61 261 0.0 0.0 0.00 0.00 0.00 92 1006.4
20260901090018 61 261 0.0 0.0 0.00 0.00 0.00 92 1006.5
20260901084525 61 261 0.0 0.0 0.00 0.00 0.00 92 1006.6
20260901083011 61 261 0.0 0.0 0.00 0.00 0.00 91 1006.6
20260901081545 61 261 0.0 0.0 0.00 0.00 0.00 91 1006.6
20260901080042 61 261 0.0 0.0 0.00 0.00 0.00 90 1006.6
20260901074527 61 261 0.0 0.0 0.00 0.00 0.00 89 1006.4
20260901073028 62 261 0.0 0.0 0.00 0.00 0.00 89 1006.5
20260901071527 62 261 0.0 0.0 0.00 0.00 0.00 89 1006.5